Home > Time Zones > World Clock > Weather > Spain > Palma > Past weeks

Flag for Spain Weather past 2 weeks in Palma, Majorca, Spain

Now
66 °F

Passing clouds.


Feels Like: 66 °F
Forecast: 65 / 85 °F
Wind: No wind

Location: Palma De Mallorca / Son San Juan

Current Time: Jul 30, 2014 at 2:27:25 AM

Latest Report: Jul 30, 2014 at 1:30 AM


Visibility: N/A

Pressure: 29.98 "Hg

Humidity: 73%

Dew point: 57 °F

Location of PalmaLocation

Historic Weather in Palma — Graph

°F

Palma temperature yesterday

Maximum temperature yesterday: 81 °F (at 6:30 PM)
Minimum temperature yesterday: 70 °F (at 11:30 PM)
Average temperature yesterday: 75 °F

Past Weeks' High & Low Weather Summary

 TemperatureHumidityPressure
High97 °F (Jul 18, 1:30 PM)89% (Jul 19, 11:30 PM)30.12 "Hg (Jul 19, 11:30 PM)
Low63 °F (Jul 23, 7:00 AM)20% (Jul 18, 1:30 PM)29.80 "Hg (Jul 20, 4:00 AM)
Average79 °F62%29.96 "Hg
* Reported Jul 15 1:00 AM — Jul 30 1:30 AM, Palma, Weather by CustomWeather, © 2014

Note: Actual official high and low records may vary slightly from our data, if they occured in-between our weather recording intervals... More about our weather records

Advertising

Palma weather history for previous 24 hours

 ConditionsComfort  
Time TempWeatherWind HumidityBarometerVisibility
1:30 AM
Jul 30
66 °FPassing clouds.No wind73%29.98 "HgN/A
1:00 AM66 °FPassing clouds.No wind73%29.98 "HgN/A
12:30 AM68 °FPassing clouds.No wind69%29.98 "HgN/A
12:00 AM68 °FPassing clouds.5 mph69%29.98 "HgN/A
11:30 PM
Jul 29
70 °FPassing clouds.6 mph64%29.98 "HgN/A
11:00 PM72 °FPassing clouds.5 mph65%29.98 "HgN/A
10:30 PM72 °FPassing clouds.8 mph65%29.95 "HgN/A
10:00 PM75 °FPassing clouds.2 mph54%29.95 "HgN/A
9:30 PM77 °FPassing clouds.5 mph47%29.92 "HgN/A
9:00 PM79 °FPassing clouds.7 mph48%29.92 "HgN/A
8:30 PM79 °FPassing clouds.6 mph42%29.92 "HgN/A
8:00 PM81 °FPassing clouds.No wind37%29.92 "HgN/A
7:30 PM81 °FPassing clouds.2 mph37%29.92 "HgN/A
7:00 PM81 °FPassing clouds.2 mph37%29.89 "HgN/A
6:30 PM81 °FPassing clouds.3 mph37%29.89 "HgN/A
6:00 PM79 °FPassing clouds.8 mph39%29.92 "HgN/A
5:30 PM79 °FPassing clouds.14 mph39%29.92 "HgN/A
5:00 PM79 °FScattered clouds.12 mph39%29.92 "HgN/A
4:30 PM77 °FScattered clouds.16 mph44%29.92 "HgN/A
4:00 PM77 °FScattered clouds.16 mph44%29.92 "HgN/A
3:30 PM77 °FScattered clouds.17 mph44%29.92 "HgN/A
3:00 PM77 °FScattered clouds.18 mph47%29.92 "HgN/A
2:30 PM79 °FPassing clouds.20 mph45%29.89 "HgN/A
2:00 PM77 °FPassing clouds.15 mph51%29.92 "HgN/A
1:30 PM79 °FScattered clouds.17 mph54%29.89 "HgN/A
1:00 PM75 °FScattered clouds.20 mph65%29.89 "HgN/A
12:30 PM75 °FScattered clouds.18 mph61%29.89 "HgN/A
12:00 PM75 °FScattered clouds.17 mph61%29.89 "HgN/A
11:30 AM75 °FScattered clouds.18 mph61%29.89 "HgN/A
11:00 AM75 °FScattered clouds.21 mph61%29.89 "HgN/A
10:30 AM73 °FScattered clouds.22 mph65%29.89 "HgN/A
10:00 AM73 °FScattered clouds.21 mph65%29.86 "HgN/A
9:30 AM73 °FScattered clouds.18 mph69%29.86 "HgN/A
9:00 AM73 °FScattered clouds.18 mph74%29.86 "HgN/A
8:30 AM73 °FScattered clouds.20 mph74%29.86 "HgN/A
8:00 AM73 °FScattered clouds.21 mph78%29.83 "HgN/A
7:30 AM72 °FPassing clouds.1 mph83%29.80 "HgN/A
7:00 AM72 °FPassing clouds.No wind78%29.80 "HgN/A
6:30 AM72 °FPassing clouds.1 mph78%29.83 "HgN/A
6:00 AM72 °FPassing clouds.1 mph78%29.83 "HgN/A
5:30 AM73 °FPassing clouds.1 mph74%29.83 "HgN/A
5:00 AM72 °FPassing clouds.No wind78%29.83 "HgN/A
4:30 AM73 °FPassing clouds.No wind74%29.83 "HgN/A
4:00 AM73 °FPassing clouds.No wind74%29.83 "HgN/A
3:30 AM73 °FPassing clouds.No wind78%29.83 "HgN/A
3:00 AM73 °FPassing clouds.1 mph78%29.83 "HgN/A
2:30 AM73 °FPassing clouds.2 mph74%29.83 "HgN/A
2:00 AM73 °FPassing clouds.5 mph78%29.86 "HgN/A
Weather by CustomWeather, © 2014

See weather overviewHow to use our weather pages